YO8KGT-13 Weather Reports


time (UTC)temp
C
wind
direction
speed
KPH
gust
KPH
rain 1hr
cm
rain 24hr
cm
rain mn
cm
humidity
%
barometer
mb
20260508004428 15 90 0.0 0.0 0.00 0.00 0.00 68 944.0
20260508003448 15 90 0.0 0.0 0.00 0.00 0.00 68 944.0
20260508002928 15 90 0.0 0.0 0.00 0.00 0.00 68 944.0
20260508002429 15 90 0.0 0.0 0.00 0.00 0.00 68 943.0
20260508001929 15 90 0.0 0.0 0.00 0.00 0.00 68 944.0
20260507234940 15 90 0.0 0.0 0.00 0.00 0.00 67 943.0
20260507234429 14 90 0.0 0.0 0.00 0.00 0.00 67 943.0
20260507233933 14 90 0.0 0.0 0.00 0.00 0.00 67 943.0
20260507233445 14 90 0.0 0.0 0.00 0.00 0.00 67 943.0
20260507232428 14 90 0.0 0.0 0.00 0.00 0.00 67 944.0
20260507231928 14 90 0.0 0.0 0.00 0.00 0.00 66 943.0
20260507230432 14 90 0.0 0.0 0.00 0.00 0.00 65 944.0
20260507225429 14 90 0.0 0.0 0.00 0.00 0.00 64 944.0
20260507224937 15 90 0.0 0.0 0.00 0.00 0.00 64 943.0
20260507224433 15 90 0.0 0.0 0.00 0.00 0.00 64 943.0
20260507223428 15 90 0.0 0.0 0.00 0.00 0.00 64 943.0
20260507222438 15 90 0.0 0.0 0.00 0.00 0.00 64 944.0
20260507221929 15 90 0.0 0.0 0.00 0.00 0.00 64 944.0
20260507221430 15 90 0.0 0.0 0.00 0.00 0.00 64 943.0
20260507220946 15 90 0.0 0.0 0.00 0.00 0.00 63 943.0
20260507220430 15 90 0.0 0.0 0.00 0.00 0.00 63 943.0
20260507214932 15 90 0.0 0.0 0.00 0.00 0.00 62 943.0
20260507213429 15 90 0.0 0.0 0.00 0.00 0.00 61 943.0
20260507211429 15 90 0.0 0.0 0.00 0.00 0.00 60 943.0
20260507210928 15 90 0.0 0.0 0.00 0.00 0.00 60 943.0
20260507205927 15 90 0.0 0.0 0.00 0.00 0.00 60 943.0
20260507205428 15 90 0.0 0.0 0.00 0.00 0.00 60 943.0
20260507204928 15 90 0.0 0.0 0.00 0.00 0.00 59 943.0
20260507204448 16 90 0.0 0.0 0.00 0.00 0.00 59 943.0
20260507202428 16 90 0.0 0.0 0.00 24.97 0.00 58 943.0
20260507201932 16 90 0.0 0.0 0.00 0.00 0.00 58 943.0
20260507194930 16 90 0.0 3.2 0.00 0.00 0.00 56 943.0
20260507193429 16 90 0.0 0.0 0.00 0.00 0.00 55 943.0
20260507192429 16 90 0.0 0.0 0.00 0.00 0.00 54 943.0
20260507191430 17 90 0.0 0.0 0.00 0.00 0.00 54 943.0
20260507190428 17 90 0.0 0.0 0.00 0.00 0.00 53 943.0
20260507185433 17 90 0.0 0.0 0.00 0.00 0.00 53 943.0
20260507183929 18 90 0.0 0.0 0.00 0.00 0.00 51 943.0
20260507182928 18 90 0.0 0.0 0.00 0.00 0.00 51 943.0
20260507182427 18 90 0.0 0.0 0.00 0.00 0.00 50 943.0
20260507181941 18 90 0.0 0.0 0.00 0.00 0.00 50 943.0
20260507180933 18 90 0.0 0.0 0.00 0.00 0.00 49 943.0
20260507180428 19 90 0.0 0.0 0.00 0.00 0.00 49 942.0
20260507175946 19 90 0.0 0.0 0.00 0.00 0.00 49 943.0
20260507175516 19 90 0.0 0.0 0.00 0.00 0.00 48 943.0
20260507174927 19 90 0.0 0.0 0.00 0.00 0.00 48 943.0
20260507174428 20 90 0.0 0.0 0.00 0.00 0.00 48 943.0
20260507172429 20 90 3.2 3.2 0.00 0.00 0.00 47 943.0
20260507171434 20 90 0.0 0.0 0.00 0.00 0.00 46 943.0
20260507171002 20 90 0.0 0.0 0.00 0.00 0.00 46 943.0
20260507170431 20 90 0.0 0.0 0.00 0.00 0.00 45 943.0
20260507165934 20 90 0.0 0.0 0.00 0.00 0.00 45 943.0
20260507165441 20 90 0.0 0.0 0.00 0.00 0.00 45 942.0
20260507164928 20 90 0.0 0.0 0.00 0.00 0.00 44 942.0
20260507163447 21 90 0.0 1.6 0.00 0.00 0.00 43 942.0
20260507162453 22 90 0.0 6.4 0.00 0.00 0.00 42 942.0
20260507161429 22 90 0.0 3.2 0.00 0.00 0.00 41 942.0
20260507160427 23 90 0.0 1.6 0.00 0.00 0.00 41 942.0
20260507155427 24 68 1.6 4.8 0.00 0.00 0.00 39 942.0
20260507153431 25 315 0.0 6.4 0.00 0.00 0.00 38 942.0
20260507152947 25 292 6.4 6.4 0.00 0.00 0.00 38 942.0
20260507150929 26 68 1.6 6.4 0.00 0.00 0.00 37 942.0
20260507145429 26 112 4.8 4.8 0.00 0.00 0.00 36 942.0
20260507144929 26 112 0.0 6.4 0.00 0.00 0.00 36 942.0
20260507143929 27 248 3.2 6.4 0.00 0.00 0.00 35 942.0
20260507143428 27 135 0.0 6.4 0.00 0.00 0.00 35 942.0
20260507142932 27 292 1.6 6.4 0.00 0.00 0.00 34 942.0
20260507142437 27 112 4.8 6.4 0.00 0.00 0.00 34 942.0
20260507141427 28 90 0.0 6.4 0.00 0.00 0.00 34 942.0
20260507140947 28 90 4.8 6.4 0.00 0.00 0.00 34 942.0
20260507135929 28 270 3.2 8.0 0.00 0.00 0.00 34 942.0
20260507135427 28 292 4.8 8.0 0.00 0.00 0.00 34 942.0
20260507134929 28 135 8.0 8.0 0.00 0.00 0.00 34 942.0
20260507133931 29 315 1.6 4.8 0.00 0.00 0.00 34 942.0
20260507133427 29 112 0.0 3.2 0.00 0.00 0.00 34 942.0
20260507132928 29 68 0.0 4.8 0.00 0.00 0.00 34 942.0
20260507132434 29 68 3.2 4.8 0.00 0.00 0.00 34 942.0
20260507131429 29 112 3.2 9.7 0.00 0.00 0.00 34 942.0
20260507130928 29 112 8.0 11.3 0.00 0.00 0.00 34 942.0
20260507130441 29 90 0.0 11.3 0.00 0.00 0.00 34 942.0
20260507125942 29 68 9.7 11.3 0.00 0.00 0.00 34 942.0
20260507125428 29 225 11.3 11.3 0.00 0.00 0.00 34 942.0
20260507124927 30 0 4.8 6.4 0.00 0.00 0.00 33 942.0
20260507123427 30 315 0.0 1.6 0.00 0.00 0.00 33 942.0
20260507121930 31 112 0.0 3.2 0.00 0.00 0.00 33 942.0
20260507121428 31 248 3.2 3.2 0.00 0.00 0.00 33 943.0
20260507120428 31 315 0.0 4.8 0.00 0.00 0.00 33 942.0
20260507114927 31 45 1.6 3.2 0.00 0.00 0.00 34 943.0
20260507114433 31 270 0.0 3.2 0.00 0.00 0.00 35 943.0
20260507113941 30 270 0.0 1.6 0.00 0.00 0.00 35 943.0
20260507113427 30 0 0.0 4.8 0.00 0.00 0.00 37 943.0
20260507111949 28 22 0.0 4.8 0.00 0.00 0.00 38 943.0
20260507110427 28 68 0.0 3.2 0.00 0.00 0.00 39 943.0
20260507105431 30 338 3.2 6.4 0.00 0.00 0.00 39 943.0
20260507104927 29 315 3.2 6.4 0.00 0.00 0.00 39 943.0
20260507103932 30 0 0.0 0.0 0.00 0.00 0.00 38 943.0
20260507102928 30 0 0.0 3.2 0.00 0.00 0.00 38 943.0
20260507102428 30 315 0.0 3.2 0.00 0.00 0.00 39 943.0
20260507101928 29 0 3.2 9.7 0.00 0.00 0.00 39 943.0
20260507100928 29 90 9.7 9.7 0.00 0.00 0.00 40 944.0
20260507100427 28 68 3.2 3.2 0.00 0.00 0.00 40 944.0
20260507095927 28 45 0.0 3.2 0.00 0.00 0.00 40 944.0
20260507095447 28 45 0.0 3.2 0.00 0.00 0.00 41 944.0
20260507094928 27 22 0.0 3.2 0.00 0.00 0.00 40 944.0
20260507093927 27 68 3.2 3.2 0.00 0.00 0.00 40 944.0
20260507092428 27 68 3.2 3.2 0.00 0.00 0.00 41 944.0
20260507090940 27 315 0.0 0.0 0.00 0.00 0.00 41 944.0
20260507090426 27 315 0.0 1.6 0.00 0.00 0.00 41 944.0
20260507085928 27 22 0.0 1.6 0.00 0.00 0.00 42 944.0
20260507084944 27 0 0.0 3.2 0.00 0.00 0.00 42 944.0
20260507083927 27 0 0.0 0.0 0.00 0.00 0.00 42 944.0
20260507082426 26 0 3.2 3.2 0.00 0.00 0.00 43 944.0
20260507081433 26 0 0.0 0.0 0.00 0.00 0.00 43 944.0
20260507080939 26 0 0.0 0.0 0.00 0.00 0.00 43 944.0
20260507080432 26 338 0.0 0.0 0.00 0.00 0.00 43 944.0
20260507075928 26 315 0.0 0.0 0.00 0.00 0.00 43 944.0
20260507075427 26 315 0.0 3.2 0.00 0.00 0.00 44 944.0
20260507074939 26 315 0.0 3.2 0.00 0.00 0.00 44 944.0
20260507073931 25 338 0.0 3.2 0.00 0.00 0.00 45 944.0
20260507073427 25 338 0.0 0.0 0.00 0.00 0.00 46 944.0
20260507072948 25 338 0.0 0.0 0.00 0.00 0.00 47 944.0
20260507072427 25 315 0.0 0.0 0.00 0.00 0.00 47 944.0
20260507071427 23 315 0.0 0.0 0.00 0.00 0.00 48 944.0
20260507070929 23 270 0.0 0.0 0.00 0.00 0.00 49 944.0
20260507065957 23 270 0.0 6.4 0.00 0.00 0.00 51 944.0
20260507065427 22 248 6.4 6.4 0.00 0.00 0.00 51 944.0
20260507064928 22 248 4.8 4.8 0.00 0.00 0.00 52 944.0
20260507063928 21 248 0.0 3.2 0.00 0.00 0.00 53 944.0
20260507062443 21 248 0.0 1.6 0.00 0.00 0.00 56 944.0
20260507061931 20 248 0.0 0.0 0.00 0.00 0.00 56 944.0
20260507061448 20 248 0.0 3.2 0.00 0.00 0.00 57 944.0
20260507060927 19 248 0.0 3.2 0.00 0.00 0.00 57 944.0
20260507060427 19 248 0.0 3.2 0.00 0.00 0.00 58 944.0
20260507055428 18 248 0.0 3.2 0.00 0.00 0.00 59 944.0
20260507054928 17 248 0.0 3.2 0.00 0.00 0.00 60 944.0
20260507054427 17 248 0.0 3.2 0.00 0.00 0.00 61 944.0
20260507053934 17 248 0.0 3.2 0.00 0.00 0.00 61 944.0
20260507052936 16 248 3.2 4.8 0.00 0.00 0.00 62 945.0
20260507051427 16 248 0.0 0.0 0.00 0.00 0.00 64 945.0
20260507050431 15 225 0.0 3.2 0.00 0.00 0.00 65 944.0
20260507045426 15 225 0.0 1.6 0.00 0.00 0.00 66 945.0
20260507044927 14 225 0.0 1.6 0.00 0.00 0.00 67 944.0
20260507044427 14 225 0.0 0.0 0.00 0.00 0.00 67 945.0
20260507043429 13 225 0.0 3.2 0.00 0.00 0.00 67 944.0
20260507042927 13 225 0.0 3.2 0.00 0.00 0.00 68 944.0
20260507042427 13 225 0.0 0.0 0.00 0.00 0.00 68 944.0
20260507041931 13 225 0.0 0.0 0.00 0.00 0.00 69 944.0
20260507041435 13 225 0.0 0.0 0.00 0.00 0.00 69 944.0
20260507040926 12 225 0.0 0.0 0.00 0.00 0.00 69 944.0
20260507040429 12 225 0.0 0.0 0.00 0.00 0.00 69 944.0
20260507035943 12 225 0.0 0.0 0.00 0.00 0.00 69 944.0
20260507034927 11 225 0.0 0.0 0.00 0.00 0.00 70 944.0
20260507033928 11 225 0.0 0.0 0.00 0.00 0.00 70 944.0
20260507033428 11 225 0.0 0.0 0.00 0.00 0.00 70 944.0
20260507032928 11 225 0.0 0.0 0.00 0.00 0.00 70 944.0
20260507032428 11 225 0.0 1.6 0.00 0.00 0.00 70 944.0
20260507025932 10 225 0.0 1.6 0.00 0.00 0.00 70 944.0
20260507024429 10 225 0.0 0.0 0.00 0.00 0.00 69 944.0
20260507023926 10 225 0.0 0.0 0.00 0.00 0.00 69 944.0
20260507022432 11 225 0.0 0.0 0.00 0.00 0.00 69 944.0
20260507021928 11 225 0.0 0.0 0.00 0.00 0.00 68 944.0
20260507020930 11 225 0.0 0.0 0.00 0.00 0.00 68 944.0
20260507020429 11 225 0.0 1.6 0.00 0.00 0.00 67 944.0
20260507014939 11 225 0.0 4.8 0.00 0.00 0.00 67 944.0
20260507014431 11 225 0.0 4.8 0.00 0.00 0.00 67 944.0
20260507013927 11 225 1.6 4.8 0.00 0.00 0.00 67 944.0
20260507013427 11 225 3.2 4.8 0.00 0.00 0.00 66 944.0
20260507012945 11 225 1.6 4.8 0.00 0.00 0.00 66 944.0
20260507012427 11 225 4.8 6.4 0.00 0.00 0.00 66 943.0
20260507011927 12 225 3.2 8.0 0.00 0.00 0.00 66 944.0
20260507011427 12 225 4.8 8.0 0.00 0.00 0.00 65 943.0